Vorticity
nan nan nan nan nan nan nan nan nan nan nan nan nan nan nan nan nan nan nan nan nan nan nan nan nan nan nan nan nan nan nan nan nan nan nan nan nan nan nan nan nan nan nan nan nan nan nan
nan 8 8 9 8 6 5 7 6 6 6 6 5 6 9 9 7 6 5 6 6 6 5 5 7 16 12 1 11 9 10 3 6 5 8 7 7 5 6 9 5 4 7 9 9 10 nan
nan 6 8 7 9 11 10 8 5 5 6 6 7 6 6 9 9 7 6 6 6 6 5 6 11 15 10 8 2 2 9 8 9 5 5 4 6 3 6 9 10 6 6 14 9 12 nan
nan 7 7 6 6 8 9 10 9 6 5 5 7 7 7 8 8 8 7 6 6 5 9 12 16 13 7 13 8 7 5 9 10 9 7 6 8 5 6 4 6 12 9 9 9 9 nan
nan 7 7 6 7 7 6 7 8 9 10 7 5 7 7 6 6 7 7 7 8 15 19 18 13 9 5 9 14 15 9 5 9 14 10 9 9 8 5 10 6 10 10 4 9 10 nan
nan 7 7 6 5 6 5 6 6 8 10 10 8 7 6 5 6 6 10 18 24 26 20 10 5 5 11 11 8 14 16 11 6 6 10 12 10 5 5 8 7 5 3 3 5 9 nan
nan 7 7 7 5 5 6 6 7 9 7 7 10 8 7 6 6 8 16 22 20 13 8 8 -1 -7 1 6 3 4 13 11 9 10 11 5 6 9 5 1 3 4 3 2 5 13 nan
nan 8 8 7 6 6 7 7 8 7 8 8 10 10 7 6 6 15 16 10 5 2 7 12 8 7 1 -1 3 5 15 8 8 8 5 10 8 9 7 5 5 3 4 4 14 17 nan
nan 10 9 7 7 8 7 7 6 6 7 7 7 10 8 6 13 19 12 5 3 8 17 17 18 14 20 13 4 2 6 10 7 9 7 3 12 10 3 3 7 6 5 12 11 10 nan
nan 8 8 8 8 8 9 8 7 6 6 7 7 8 8 11 13 12 6 2 7 16 11 16 16 17 17 10 22 20 -0 7 12 9 5 8 11 7 7 7 7 6 7 12 8 9 nan
nan 8 8 8 8 9 9 9 9 7 8 8 8 9 11 10 7 7 3 1 17 16 6 14 12 16 21 6 5 29 14 1 14 9 6 10 13 15 7 7 4 5 12 12 9 7 nan
nan 7 7 7 8 8 8 9 10 9 8 9 9 8 10 9 11 5 4 14 18 10 8 8 15 10 7 5 1 13 14 7 12 10 10 7 -2 14 15 10 8 10 14 7 11 11 nan
nan 7 8 8 9 9 8 8 8 9 9 9 10 9 10 8 6 7 10 19 13 5 7 10 1 3 13 13 3 7 17 12 -1 11 10 8 7 4 11 10 13 13 6 6 6 11 nan
nan 9 9 9 9 9 9 9 9 9 9 9 9 11 10 7 5 8 12 14 7 9 5 1 2 6 14 13 20 10 8 13 4 3 18 8 14 15 7 8 7 9 7 7 10 6 nan
nan 9 10 10 9 9 9 9 9 9 10 10 9 10 9 11 10 7 12 7 6 4 6 6 10 15 11 8 10 17 16 10 16 7 1 9 8 11 15 11 6 5 11 9 5 8 nan
nan 9 8 10 10 9 9 9 9 10 11 6 9 10 12 13 9 6 10 9 2 -5 -2 10 13 10 2 1 2 11 16 9 13 14 2 -3 18 11 12 11 9 12 3 5 12 14 nan
nan 10 10 10 9 9 9 9 11 11 11 8 5 8 17 14 2 10 8 10 7 -2 8 10 8 4 -1 5 8 8 1 7 24 13 9 3 -0 12 11 10 8 2 7 8 13 8 nan
nan 10 10 9 9 9 9 10 10 11 10 10 7 13 12 9 1 7 14 5 1 5 13 9 6 14 15 6 7 9 15 6 -3 21 26 17 2 11 1 5 14 15 7 3 5 8 nan
nan 9 9 9 9 9 10 11 12 13 3 3 11 13 13 9 10 3 8 11 3 8 0 3 10 7 5 10 11 7 10 4 -1 14 17 12 10 9 9 8 13 13 10 7 2 11 nan
nan 10 10 10 10 10 10 12 11 12 5 -1 8 10 12 6 14 18 4 12 11 11 9 1 2 -1 2 14 13 3 7 1 7 9 17 18 22 14 3 7 5 8 16 12 1 3 nan
nan 12 12 12 12 12 12 12 11 13 7 0 5 9 13 17 11 12 7 7 11 5 12 6 14 15 3 3 11 8 2 8 8 15 23 22 9 18 14 3 -2 -2 16 21 6 8 nan
nan 11 12 12 13 13 12 11 13 15 5 -0 7 9 7 15 23 12 7 3 9 9 7 1 0 13 17 7 -4 3 10 14 6 7 12 16 16 12 12 11 3 2 15 15 13 8 nan
nan 12 12 13 13 13 14 12 12 12 0 -1 6 9 14 13 12 13 13 8 7 6 9 14 8 8 7 10 8 11 11 10 7 1 11 12 11 11 15 20 5 11 18 8 8 10 nan
nan 15 15 14 14 14 14 14 15 14 -3 -6 8 10 11 13 14 10 13 15 8 6 -3 6 16 7 9 13 16 10 11 16 10 8 4 5 10 11 16 13 12 8 16 21 10 8 nan
nan 14 14 14 15 16 15 15 15 15 -0 -6 5 10 9 10 13 20 10 10 15 12 9 2 0 3 15 18 14 8 6 12 20 18 13 8 5 11 14 3 6 16 12 12 11 11 nan
nan 11 12 11 12 13 14 15 15 15 4 -3 3 8 11 16 14 12 17 12 12 14 18 19 13 10 11 12 12 11 7 9 8 12 21 14 12 9 11 15 6 9 11 8 9 12 nan
nan 11 11 11 12 12 12 12 14 15 4 -2 10 10 7 11 21 11 9 14 9 7 12 19 22 17 11 9 11 10 14 8 7 10 7 10 16 13 10 10 11 10 19 24 7 9 nan
nan 12 13 13 12 13 13 12 11 13 8 -3 8 13 3 8 17 15 5 6 5 6 9 6 11 15 13 14 11 12 13 10 12 8 9 5 10 10 8 9 9 7 20 16 9 10 nan
nan nan nan nan nan nan nan nan nan nan nan nan nan nan nan nan nan nan nan nan nan nan nan nan nan nan nan nan nan nan nan nan nan nan nan nan nan nan nan nan nan nan nan nan nan nan nan
CAPE
14 10 5 1 0 0 1 3 12 1 6 15 18 15 13 14 8 6 5 2 2 0 0 0 0 1 0 0 0 0 0 0 0 0 0 0 0 0 0 0 0 0 0 0 0 0 0
33 38 30 17 6 2 0 0 0 0 8 5 10 15 18 15 9 4 2 0 0 0 0 0 0 4 0 0 0 0 0 0 0 0 0 0 0 0 0 0 0 0 0 0 0 0 0
11 14 27 23 23 22 12 16 7 9 8 5 8 9 5 8 11 6 0 0 0 0 0 0 0 3 2 0 0 0 0 0 0 0 0 0 0 0 0 0 0 0 0 0 0 0 0
15 16 17 23 22 22 25 28 28 9 16 12 5 3 4 0 2 0 0 0 0 0 0 0 0 3 0 0 0 0 0 0 0 0 0 0 0 0 0 0 0 0 0 0 0 0 0
22 25 16 22 24 21 16 13 13 14 18 24 17 12 14 0 0 0 0 0 0 0 0 0 1 5 0 0 0 0 0 0 0 0 0 0 0 0 0 0 0 0 0 0 0 0 0
27 30 21 19 25 19 16 15 7 9 12 29 24 18 12 1 0 0 0 0 0 0 0 0 5 0 0 0 0 0 0 0 0 0 0 0 0 0 0 0 0 0 0 0 0 0 0
37 33 32 19 12 13 11 9 12 14 18 13 25 23 12 0 0 0 0 0 0 0 0 0 0 0 0 0 0 0 0 0 0 0 0 0 0 0 0 0 0 0 0 0 0 0 0
47 43 37 31 8 12 12 6 14 15 18 17 15 28 19 3 0 0 0 0 0 0 1 0 0 0 0 0 0 0 0 0 0 0 0 0 0 0 0 0 0 0 0 0 0 0 0
52 56 48 37 30 12 8 12 19 14 15 19 15 18 18 0 0 0 0 0 0 0 0 0 0 0 0 0 0 0 0 0 0 0 0 0 0 0 0 0 0 0 0 0 0 0 0
78 85 42 41 37 19 12 17 17 19 16 20 18 23 30 0 0 0 0 0 0 0 0 0 0 0 0 0 0 0 0 0 0 0 0 0 0 0 0 0 0 0 0 0 0 0 0
85 74 63 46 39 43 43 28 20 15 28 36 33 38 51 13 0 0 0 0 0 3 0 0 0 0 0 0 0 0 0 0 0 0 0 0 0 0 0 0 0 0 0 0 0 0 0
75 70 52 49 42 46 45 42 40 37 40 48 42 43 53 4 0 0 0 0 5 21 0 0 0 0 0 0 0 0 0 0 0 0 0 0 0 0 0 0 0 0 0 0 0 0 0
58 57 47 62 60 56 33 47 41 45 45 50 52 50 51 7 0 0 0 0 32 6 0 0 0 0 0 0 0 0 0 0 0 0 0 0 0 0 0 0 0 0 0 0 0 0 0
103 96 72 42 45 64 53 53 51 56 58 55 52 48 18 2 0 0 0 6 2 0 0 0 0 0 0 0 0 0 0 0 0 0 0 0 0 0 0 0 0 0 0 0 0 0 0
80 81 64 62 58 54 54 53 57 55 62 83 82 24 4 0 0 0 5 5 0 0 0 0 0 0 0 0 0 0 0 0 0 0 0 0 0 0 0 0 0 0 0 0 0 0 0
61 81 78 68 62 58 58 62 58 75 76 94 53 45 0 0 4 1 20 1 0 0 0 0 0 0 0 0 0 0 0 0 0 0 0 0 0 0 0 0 0 0 0 0 0 20 5
76 56 68 65 61 59 60 67 57 81 93 72 58 46 22 5 35 35 4 4 0 0 0 0 0 0 0 0 0 0 0 0 0 0 0 0 0 0 0 0 0 0 0 0 0 0 0
67 68 65 61 59 58 55 56 66 74 74 89 51 19 25 8 12 3 2 0 0 0 0 0 0 0 0 0 0 0 0 0 0 0 0 0 0 0 0 0 0 0 0 0 0 0 0
66 68 64 61 59 53 54 60 66 69 83 57 6 5 24 5 3 11 18 6 0 0 0 0 0 0 0 0 0 5 0 0 0 1 0 0 0 0 0 0 0 0 0 0 0 0 0
71 69 67 65 62 59 55 65 85 89 80 53 2 2 18 25 1 7 23 16 7 1 0 0 0 0 0 0 0 0 0 0 0 0 0 0 0 0 0 0 0 0 0 0 0 0 0
83 82 76 76 66 68 66 84 87 92 81 58 2 3 14 1 12 9 4 20 11 14 12 1 0 0 0 1 0 0 0 0 0 0 0 0 0 0 0 0 0 0 0 0 0 0 0
97 91 82 82 89 88 84 80 83 96 80 30 0 11 18 0 2 9 14 27 13 3 0 0 0 0 0 0 0 0 1 27 22 8 0 0 0 0 0 0 0 0 0 0 0 0 0
83 80 74 71 69 74 80 80 72 85 72 26 15 0 15 3 10 20 6 4 19 0 4 0 0 0 0 0 0 0 32 59 19 14 18 3 0 0 0 0 0 0 0 0 0 0 0
75 77 82 82 82 77 74 69 68 80 78 28 15 10 2 21 0 8 7 21 13 8 0 0 0 0 0 0 0 31 35 46 5 8 0 12 2 0 0 0 0 0 0 0 0 0 0
85 83 89 92 87 95 81 71 66 76 77 37 26 16 12 6 28 1 1 4 0 0 2 0 0 0 0 0 8 31 1 0 0 0 0 1 5 0 3 0 0 0 0 0 0 0 0
64 67 71 68 64 61 68 66 69 75 82 52 25 21 14 10 4 24 6 4 0 0 0 0 0 0 0 0 31 13 25 0 3 5 3 16 0 0 1 0 0 0 0 0 0 0 0
68 75 77 76 74 67 61 55 59 66 83 62 31 41 19 7 6 9 31 6 0 0 0 0 0 0 0 0 0 1 5 12 0 0 0 0 0 3 0 1 2 0 0 0 0 0 0
57 63 72 75 77 82 83 66 57 62 75 40 26 31 19 10 3 2 34 13 0 0 0 0 0 0 0 0 0 1 17 1 9 0 0 1 0 0 0 0 2 0 1 0 0 0 0
56 55 62 66 60 63 72 79 67 60 63 64 16 54 17 13 12 0 0 0 1 0 0 0 0 0 0 0 0 0 45 1 0 0 0 2 22 0 0 0 0 0 0 0 0 2 0